• In Lithuania
  • List of Countries
  • For 7 days
  • Water Temperature
  • Satellite Maps
  • Weather Map
  • Weather Widgets
  • user-avatar
    Login

    Hourly Weather Azhinov

    Today, 21 July, Saturday

    Time Temperature Precipitation Wind Pressure Humidity
    00:00 +24°C° 0.1 mm 3 mps 752 mmHg 71%
    01:00 +22°C° 0 mm 3 mps 752 mmHg 73%
    02:00 +22°C° 0 mm 3 mps 752 mmHg 75%
    03:00 +21°C° 0 mm 2 mps 752 mmHg 79%
    04:00 +21°C° 0 mm 3 mps 752 mmHg 79%
    05:00 +22°C° 0 mm 3 mps 752 mmHg 79%
    06:00 +22°C° 0 mm 3 mps 752 mmHg 80%
    07:00 +25°C° 0.1 mm 4 mps 752 mmHg 73%
    08:00 +27°C° 0.1 mm 4 mps 752 mmHg 67%
    09:00 +28°C° 0 mm 4 mps 752 mmHg 61%
    10:00 +30°C° 0.4 mm 4 mps 752 mmHg 56%
    11:00 +32°C° 0.4 mm 4 mps 752 mmHg 51%
    12:00 +33°C° 0.4 mm 4 mps 752 mmHg 46%
    13:00 +33°C° 0 mm 4 mps 752 mmHg 45%
    14:00 +33°C° 0 mm 4 mps 752 mmHg 44%
    15:00 +33°C° 0 mm 4 mps 752 mmHg 43%
    16:00 +33°C° 0 mm 4 mps 752 mmHg 44%
    17:00 +33°C° 0 mm 4 mps 752 mmHg 45%
    18:00 +33°C° 0 mm 4 mps 752 mmHg 46%
    19:00 +30°C° 0 mm 4 mps 752 mmHg 50%
    20:00 +29°C° 0 mm 4 mps 752 mmHg 54%
    21:00 +27°C° 0 mm 3 mps 753 mmHg 59%
    22:00 +26°C° 0 mm 3 mps 753 mmHg 62%
    23:00 +25°C° 0 mm 3 mps 753 mmHg 64%

    Tomorrow, 22 July, Sunday

    Time Temperature Precipitation Wind Pressure Humidity
    00:00 +25°C° 0 mm 3 mps 753 mmHg 67%
    01:00 +24°C° 0 mm 3 mps 753 mmHg 70%
    02:00 +24°C° 0 mm 3 mps 753 mmHg 72%
    03:00 +22°C° 0 mm 3 mps 753 mmHg 75%
    04:00 +22°C° 0 mm 3 mps 753 mmHg 76%
    05:00 +24°C° 0 mm 3 mps 753 mmHg 77%
    06:00 +24°C° 0 mm 3 mps 753 mmHg 78%
    07:00 +26°C° 0.2 mm 3 mps 753 mmHg 71%
    08:00 +28°C° 0.2 mm 3 mps 753 mmHg 64%
    09:00 +30°C° 0.2 mm 3 mps 753 mmHg 56%
    10:00 +30°C° 0 mm 4 mps 753 mmHg 52%
    11:00 +32°C° 0 mm 4 mps 752 mmHg 48%
    12:00 +33°C° 0 mm 4 mps 752 mmHg 44%
    13:00 +33°C° 0 mm 4 mps 752 mmHg 43%
    14:00 +33°C° 0 mm 4 mps 752 mmHg 42%
    15:00 +33°C° 0 mm 4 mps 752 mmHg 42%
    16:00 +33°C° 0 mm 3 mps 752 mmHg 43%
    17:00 +33°C° 0 mm 3 mps 752 mmHg 45%
    18:00 +31°C° 0 mm 3 mps 752 mmHg 46%
    19:00 +30°C° 0 mm 3 mps 752 mmHg 49%
    20:00 +29°C° 0 mm 3 mps 752 mmHg 52%
    21:00 +28°C° 0 mm 2 mps 752 mmHg 54%
    22:00 +27°C° 0 mm 2 mps 752 mmHg 57%
    23:00 +26°C° 0 mm 2 mps 752 mmHg 60%

    Day after tomorrow, 23 July, Monday

    Time Temperature Precipitation Wind Pressure Humidity
    00:00 +25°C° 0 mm 2 mps 752 mmHg 63%
    01:00 +25°C° 0 mm 2 mps 752 mmHg 65%
    02:00 +24°C° 0 mm 2 mps 752 mmHg 67%
    03:00 +24°C° 0 mm 2 mps 752 mmHg 69%
    04:00 +24°C° 0 mm 2 mps 752 mmHg 70%
    05:00 +24°C° 0 mm 2 mps 752 mmHg 70%
    06:00 +24°C° 0 mm 2 mps 752 mmHg 71%
    07:00 +26°C° 0 mm 2 mps 752 mmHg 65%
    08:00 +28°C° 0 mm 2 mps 752 mmHg 59%
    09:00 +29°C° 0 mm 2 mps 752 mmHg 53%
    10:00 +31°C° 0.1 mm 2 mps 752 mmHg 48%
    11:00 +32°C° 0.1 mm 2 mps 752 mmHg 44%
    12:00 +34°C° 0.1 mm 2 mps 752 mmHg 40%
    13:00 +34°C° 0 mm 2 mps 752 mmHg 40%
    14:00 +34°C° 0 mm 2 mps 752 mmHg 40%
    15:00 +34°C° 0 mm 2 mps 752 mmHg 40%
    16:00 +34°C° 0 mm 2 mps 752 mmHg 41%
    17:00 +32°C° 0 mm 1 mps 752 mmHg 42%
    18:00 +32°C° 0 mm 1 mps 752 mmHg 43%
    19:00 +31°C° 0.4 mm 2 mps 752 mmHg 49%
    20:00 +29°C° 0.4 mm 2 mps 752 mmHg 54%
    21:00 +27°C° 0.4 mm 2 mps 752 mmHg 60%
    22:00 +27°C° 0.5 mm 2 mps 752 mmHg 65%
    23:00 +26°C° 0.5 mm 2 mps 752 mmHg 69%

    24 July, Tuesday

    Time Temperature Precipitation Wind Pressure Humidity
    00:00 +25°C° 0.5 mm 2 mps 753 mmHg 73%
    01:00 +24°C° 0.4 mm 2 mps 752 mmHg 76%
    02:00 +24°C° 0.4 mm 2 mps 752 mmHg 78%
    03:00 +24°C° 0.4 mm 2 mps 752 mmHg 81%
    04:00 +24°C° 0.2 mm 2 mps 752 mmHg 81%
    05:00 +24°C° 0.2 mm 2 mps 753 mmHg 81%
    06:00 +24°C° 0.2 mm 2 mps 753 mmHg 82%
    07:00 +25°C° 0 mm 2 mps 753 mmHg 75%
    08:00 +27°C° 0 mm 2 mps 753 mmHg 67%
    09:00 +29°C° 0 mm 2 mps 753 mmHg 60%
    10:00 +30°C° 0 mm 2 mps 753 mmHg 55%
    11:00 +31°C° 0 mm 2 mps 753 mmHg 50%
    12:00 +32°C° 0 mm 2 mps 752 mmHg 44%
    13:00 +32°C° 0 mm 2 mps 752 mmHg 44%
    14:00 +34°C° 0 mm 2 mps 752 mmHg 44%
    15:00 +34°C° 0 mm 2 mps 752 mmHg 44%
    16:00 +33°C° 0 mm 3 mps 752 mmHg 46%
    17:00 +33°C° 0 mm 3 mps 752 mmHg 48%
    18:00 +31°C° 0 mm 3 mps 752 mmHg 50%
    19:00 +30°C° 0 mm 3 mps 753 mmHg 53%
    20:00 +29°C° 0 mm 3 mps 753 mmHg 55%
    21:00 +29°C° 0 mm 3 mps 753 mmHg 58%
    22:00 +28°C° 0 mm 3 mps 753 mmHg 62%
    23:00 +27°C° 0 mm 3 mps 753 mmHg 65%

    25 July, Wednesday

    Time Temperature Precipitation Wind Pressure Humidity
    00:00 +27°C° 0 mm 4 mps 753 mmHg 69%
    01:00 +26°C° 0 mm 4 mps 753 mmHg 72%
    02:00 +26°C° 0 mm 4 mps 753 mmHg 75%
    03:00 +25°C° 0 mm 4 mps 753 mmHg 77%
    04:00 +25°C° 0.2 mm 4 mps 754 mmHg 77%
    05:00 +25°C° 0.2 mm 5 mps 754 mmHg 76%
    06:00 +25°C° 0.2 mm 5 mps 754 mmHg 75%
    07:00 +26°C° 0.6 mm 5 mps 754 mmHg 71%
    08:00 +27°C° 0.6 mm 5 mps 754 mmHg 66%
    09:00 +28°C° 0.6 mm 5 mps 754 mmHg 62%
    10:00 +29°C° 0.2 mm 6 mps 754 mmHg 57%
    11:00 +32°C° 0.2 mm 6 mps 754 mmHg 51%
    12:00 +33°C° 0.2 mm 6 mps 754 mmHg 45%
    13:00 +34°C° 0 mm 6 mps 754 mmHg 41%
    14:00 +35°C° 0 mm 6 mps 754 mmHg 38%
    15:00 +36°C° 0 mm 6 mps 753 mmHg 34%
    16:00 +36°C° 0 mm 6 mps 753 mmHg 34%
    17:00 +36°C° 0 mm 6 mps 753 mmHg 34%
    18:00 +36°C° 0 mm 5 mps 753 mmHg 34%
    19:00 +34°C° 0.1 mm 5 mps 753 mmHg 38%
    20:00 +32°C° 0.1 mm 4 mps 754 mmHg 41%
    21:00 +29°C° 0.1 mm 4 mps 754 mmHg 45%
    22:00 +29°C° 0 mm 4 mps 754 mmHg 44%
    23:00 +28°C° 0 mm 5 mps 754 mmHg 44%

    26 July, Thursday

    Time Temperature Precipitation Wind Pressure Humidity
    00:00 +28°C° 0 mm 5 mps 754 mmHg 43%
    01:00 +27°C° 0 mm 5 mps 754 mmHg 42%
    02:00 +27°C° 0 mm 5 mps 754 mmHg 42%
    03:00 +27°C° 0 mm 5 mps 754 mmHg 41%
    04:00 +26°C° 0 mm 4 mps 754 mmHg 44%
    05:00 +26°C° 0 mm 4 mps 754 mmHg 47%
    06:00 +25°C° 0 mm 4 mps 754 mmHg 50%
    07:00 +27°C° 0 mm 5 mps 755 mmHg 46%
    08:00 +29°C° 0 mm 5 mps 755 mmHg 42%
    09:00 +32°C° 0 mm 5 mps 755 mmHg 39%
    10:00 +34°C° 0 mm 6 mps 755 mmHg 35%
    11:00 +36°C° 0 mm 6 mps 755 mmHg 31%
    12:00 +38°C° 0 mm 7 mps 755 mmHg 27%
    13:00 +39°C° 0 mm 7 mps 755 mmHg 26%
    14:00 +40°C° 0 mm 7 mps 754 mmHg 25%
    15:00 +41°C° 0 mm 7 mps 754 mmHg 24%
    16:00 +40°C° 0 mm 7 mps 754 mmHg 27%
    17:00 +39°C° 0 mm 6 mps 754 mmHg 29%
    18:00 +38°C° 0 mm 6 mps 754 mmHg 32%
    19:00 +36°C° 0.1 mm 5 mps 755 mmHg 37%
    20:00 +34°C° 0.1 mm 5 mps 755 mmHg 42%
    21:00 +32°C° 0.1 mm 4 mps 755 mmHg 46%
    22:00 +30°C° 0 mm 5 mps 756 mmHg 44%
    23:00 +30°C° 0 mm 5 mps 756 mmHg 42%
    Show more